Time,TemperatureF,DewpointF,PressureIn,WindDirection,WindDirectionDegrees,WindSpeedMPH,WindSpeedGustMPH,Humidity,HourlyPrecipIn,Conditions,Clouds,dailyrainin,SolarRadiationWatts/m^2,SoftwareType,DateUTC
2013-02-03 00:01:00,37.0,36.0,-100.00,ESE,122,3.0,5.0,98,0.00,,,-99.99,1.000000,,2013-02-03 08:01:00,
2013-02-03 00:32:00,35.0,34.0,-100.00,East,101,1.0,4.0,98,0.00,,,0.01,1.000000,,2013-02-03 08:32:00,
2013-02-03 00:42:00,35.0,34.0,-100.00,East,101,1.0,4.0,98,0.00,,,0.01,1.000000,,2013-02-03 08:42:00,
2013-02-03 00:52:00,35.0,34.0,-100.00,East,101,1.0,4.0,98,0.00,,,0.01,1.000000,,2013-02-03 08:52:00,
2013-02-03 01:02:00,35.0,34.0,-100.00,East,101,1.0,4.0,98,0.00,,,0.01,1.000000,,2013-02-03 09:02:00,
2013-02-03 01:32:00,34.0,34.0,-100.00,East,98,1.0,3.0,98,0.00,,,0.01,1.000000,,2013-02-03 09:32:00,
2013-02-03 01:42:00,34.0,34.0,-100.00,East,98,1.0,3.0,98,0.00,,,0.01,1.000000,,2013-02-03 09:42:00,
2013-02-03 01:52:00,34.0,34.0,-100.00,East,98,1.0,3.0,98,0.00,,,0.01,1.000000,,2013-02-03 09:52:00,
2013-02-03 02:01:00,34.0,34.0,-100.00,East,98,1.0,3.0,98,0.00,,,0.01,1.000000,,2013-02-03 10:01:00,
2013-02-03 02:32:00,33.0,32.0,-100.00,SE,126,1.0,3.0,98,0.00,,,0.01,1.000000,,2013-02-03 10:32:00,
2013-02-03 02:42:00,33.0,32.0,-100.00,SE,126,1.0,3.0,98,0.00,,,0.01,1.000000,,2013-02-03 10:42:00,
2013-02-03 02:52:00,33.0,32.0,-100.00,SE,126,1.0,3.0,98,0.00,,,0.01,1.000000,,2013-02-03 10:52:00,
2013-02-03 03:02:00,33.0,32.0,-100.00,SE,126,1.0,3.0,98,0.00,,,0.01,1.000000,,2013-02-03 11:02:00,
2013-02-03 03:32:00,32.0,32.0,-100.00,ENE,69,0.0,2.0,98,0.00,,,0.01,1.000000,,2013-02-03 11:32:00,
2013-02-03 03:42:00,32.0,32.0,-100.00,ENE,69,0.0,2.0,98,0.00,,,0.01,1.000000,,2013-02-03 11:42:00,
2013-02-03 03:52:00,32.0,32.0,-100.00,ENE,69,0.0,2.0,98,0.00,,,0.01,1.000000,,2013-02-03 11:52:00,
2013-02-03 04:02:00,32.0,32.0,-100.00,ENE,69,0.0,2.0,98,0.00,,,0.01,1.000000,,2013-02-03 12:02:00,
2013-02-03 04:32:00,31.0,31.0,-100.00,NE,40,0.0,2.0,98,0.00,,,0.01,1.000000,,2013-02-03 12:32:00,
2013-02-03 04:42:00,31.0,31.0,-100.00,NE,40,0.0,2.0,98,0.00,,,0.01,1.000000,,2013-02-03 12:42:00,
2013-02-03 04:53:00,31.0,31.0,-100.00,NE,40,0.0,2.0,98,0.00,,,0.01,1.000000,,2013-02-03 12:53:00,
2013-02-03 05:02:00,31.0,31.0,-100.00,NE,40,0.0,2.0,98,0.00,,,0.01,1.000000,,2013-02-03 13:02:00,
2013-02-03 05:32:00,31.0,31.0,-100.00,NE,50,0.0,3.0,98,0.00,,,0.01,1.000000,,2013-02-03 13:32:00,
2013-02-03 05:42:00,31.0,31.0,-100.00,NE,50,0.0,3.0,98,0.00,,,0.01,1.000000,,2013-02-03 13:42:00,
2013-02-03 05:52:00,31.0,31.0,-100.00,NE,50,0.0,3.0,98,0.00,,,0.01,1.000000,,2013-02-03 13:52:00,
2013-02-03 06:02:00,31.0,31.0,-100.00,NE,50,0.0,3.0,98,0.00,,,0.01,1.000000,,2013-02-03 14:02:00,
2013-02-03 06:32:00,32.0,32.0,-100.00,ENE,75,2.0,4.0,99,0.00,,,0.01,1.000000,,2013-02-03 14:32:00,
2013-02-03 06:42:00,32.0,32.0,-100.00,ENE,75,2.0,4.0,99,0.00,,,0.01,1.000000,,2013-02-03 14:42:00,
2013-02-03 06:52:00,32.0,32.0,-100.00,ENE,75,2.0,4.0,99,0.00,,,0.01,1.000000,,2013-02-03 14:52:00,
2013-02-03 07:02:00,32.0,32.0,-100.00,ENE,75,2.0,4.0,99,0.00,,,0.01,1.000000,,2013-02-03 15:02:00,
2013-02-03 07:33:00,38.0,38.0,-100.00,SW,224,4.0,8.0,99,0.00,,,0.01,1.000000,,2013-02-03 15:33:00,
2013-02-03 07:42:00,38.0,38.0,-100.00,SW,224,4.0,8.0,99,0.00,,,0.01,1.000000,,2013-02-03 15:42:00,
2013-02-03 07:52:00,38.0,38.0,-100.00,SW,224,4.0,8.0,99,0.00,,,0.01,1.000000,,2013-02-03 15:52:00,
2013-02-03 08:02:00,38.0,38.0,-100.00,SW,224,4.0,8.0,99,0.00,,,0.01,1.000000,,2013-02-03 16:02:00,
2013-02-03 08:33:00,39.0,39.0,-100.00,East,79,0.0,6.0,99,0.00,,,0.01,5.000000,,2013-02-03 16:33:00,
2013-02-03 08:42:00,39.0,39.0,-100.00,East,79,0.0,6.0,99,0.00,,,0.01,5.000000,,2013-02-03 16:42:00,
2013-02-03 08:52:00,39.0,39.0,-100.00,East,79,0.0,6.0,99,0.00,,,0.01,5.000000,,2013-02-03 16:52:00,
2013-02-03 09:02:00,39.0,39.0,-100.00,East,79,0.0,6.0,99,0.00,,,0.01,5.000000,,2013-02-03 17:02:00,
2013-02-03 09:32:00,41.0,41.0,-100.00,WSW,252,2.0,6.0,99,0.00,,,0.01,27.000000,,2013-02-03 17:32:00,
2013-02-03 09:42:00,41.0,41.0,-100.00,WSW,252,2.0,6.0,99,0.00,,,0.01,27.000000,,2013-02-03 17:42:00,
2013-02-03 09:52:00,41.0,41.0,-100.00,WSW,252,2.0,6.0,99,0.00,,,0.01,27.000000,,2013-02-03 17:52:00,
2013-02-03 10:02:00,41.0,41.0,-100.00,WSW,252,2.0,6.0,99,0.00,,,0.01,27.000000,,2013-02-03 18:02:00,
2013-02-03 10:33:00,42.0,41.0,-100.00,West,274,4.0,6.0,98,0.00,,,0.01,35.000000,,2013-02-03 18:33:00,
2013-02-03 10:42:00,42.0,41.0,-100.00,West,274,4.0,6.0,98,0.00,,,0.01,35.000000,,2013-02-03 18:42:00,
2013-02-03 10:52:00,42.0,41.0,-100.00,West,274,4.0,6.0,98,0.00,,,0.01,35.000000,,2013-02-03 18:52:00,
2013-02-03 11:02:00,42.0,41.0,-100.00,West,274,4.0,6.0,98,0.00,,,0.01,35.000000,,2013-02-03 19:02:00,
2013-02-03 11:32:00,44.0,42.0,-100.00,WSW,255,4.0,6.0,91,0.00,,,0.01,50.000000,,2013-02-03 19:32:00,
2013-02-03 11:42:00,44.0,42.0,-100.00,WSW,255,4.0,6.0,91,0.00,,,0.01,50.000000,,2013-02-03 19:42:00,
2013-02-03 11:52:00,44.0,42.0,-100.00,WSW,255,4.0,6.0,91,0.00,,,0.01,50.000000,,2013-02-03 19:52:00,
2013-02-03 12:01:00,44.0,42.0,-100.00,WSW,255,4.0,6.0,91,0.00,,,0.01,50.000000,,2013-02-03 20:01:00,
2013-02-03 12:33:00,44.0,42.0,-100.00,SW,235,5.0,10.0,91,0.00,,,0.00,73.000000,,2013-02-03 20:33:00,
2013-02-03 12:42:00,44.0,42.0,-100.00,SW,235,5.0,10.0,91,0.00,,,0.00,73.000000,,2013-02-03 20:42:00,
2013-02-03 12:52:00,44.0,42.0,-100.00,SW,235,5.0,10.0,91,0.00,,,0.00,73.000000,,2013-02-03 20:52:00,
2013-02-03 13:02:00,44.0,42.0,-100.00,SW,235,5.0,10.0,91,0.00,,,0.00,73.000000,,2013-02-03 21:02:00,
2013-02-03 13:33:00,45.0,41.0,-100.00,SW,235,4.0,9.0,86,0.00,,,0.00,63.000000,,2013-02-03 21:33:00,
2013-02-03 13:42:00,45.0,41.0,-100.00,SW,235,4.0,9.0,86,0.00,,,0.00,63.000000,,2013-02-03 21:42:00,
2013-02-03 13:52:00,45.0,41.0,-100.00,SW,235,4.0,9.0,86,0.00,,,0.00,63.000000,,2013-02-03 21:52:00,
2013-02-03 14:01:00,45.0,41.0,-100.00,SW,235,4.0,9.0,86,0.00,,,0.00,63.000000,,2013-02-03 22:01:00,
2013-02-03 14:32:00,47.0,41.0,-100.00,SW,230,4.0,8.0,81,0.00,,,0.00,63.000000,,2013-02-03 22:32:00,
2013-02-03 14:42:00,47.0,41.0,-100.00,SW,230,4.0,8.0,81,0.00,,,0.00,63.000000,,2013-02-03 22:42:00,
2013-02-03 14:52:00,47.0,41.0,-100.00,SW,230,4.0,8.0,81,0.00,,,0.00,63.000000,,2013-02-03 22:52:00,
2013-02-03 15:01:00,47.0,41.0,-100.00,SW,230,4.0,8.0,81,0.00,,,0.00,63.000000,,2013-02-03 23:01:00,
2013-02-03 15:32:00,47.0,41.0,-100.00,WSW,239,4.0,8.0,78,0.00,,,0.00,59.000000,,2013-02-03 23:32:00,
2013-02-03 15:42:00,47.0,41.0,-100.00,WSW,239,4.0,8.0,78,0.00,,,0.00,59.000000,,2013-02-03 23:42:00,
2013-02-03 15:52:00,47.0,41.0,-100.00,WSW,239,4.0,8.0,78,0.00,,,0.00,59.000000,,2013-02-03 23:52:00,
2013-02-03 16:01:00,47.0,41.0,-100.00,WSW,239,4.0,8.0,78,0.00,,,0.00,59.000000,,2013-02-04 00:01:00,
2013-02-03 16:32:00,47.0,40.0,-100.00,SW,234,5.0,11.0,77,0.00,,,0.00,43.000000,,2013-02-04 00:32:00,
2013-02-03 16:42:00,47.0,40.0,-100.00,SW,234,5.0,11.0,77,0.00,,,0.00,43.000000,,2013-02-04 00:42:00,
2013-02-03 16:52:00,47.0,40.0,-100.00,SW,234,5.0,11.0,77,0.00,,,0.00,43.000000,,2013-02-04 00:52:00,
2013-02-03 17:01:00,47.0,40.0,-100.00,SW,234,5.0,11.0,77,0.00,,,0.00,43.000000,,2013-02-04 01:01:00,
2013-02-03 17:32:00,47.0,41.0,-100.00,SW,226,4.0,10.0,80,0.00,,,0.00,14.000000,,2013-02-04 01:32:00,
2013-02-03 17:42:00,47.0,41.0,-100.00,SW,226,4.0,10.0,80,0.00,,,0.00,14.000000,,2013-02-04 01:42:00,
2013-02-03 17:52:00,47.0,41.0,-100.00,SW,226,4.0,10.0,80,0.00,,,0.00,14.000000,,2013-02-04 01:52:00,
2013-02-03 18:01:00,47.0,41.0,-100.00,SW,226,4.0,10.0,80,0.00,,,0.00,14.000000,,2013-02-04 02:01:00,
2013-02-03 18:32:00,45.0,41.0,-100.00,SW,218,3.0,7.0,85,0.00,,,0.00,1.000000,,2013-02-04 02:32:00,
2013-02-03 18:42:00,45.0,41.0,-100.00,SW,218,3.0,7.0,85,0.00,,,0.00,1.000000,,2013-02-04 02:42:00,
2013-02-03 18:52:00,45.0,41.0,-100.00,SW,218,3.0,7.0,85,0.00,,,0.00,1.000000,,2013-02-04 02:52:00,
2013-02-03 19:01:00,45.0,41.0,-100.00,SW,218,3.0,7.0,85,0.00,,,0.00,1.000000,,2013-02-04 03:01:00,
2013-02-03 19:32:00,45.0,41.0,-100.00,SW,230,3.0,8.0,85,0.00,,,0.00,1.000000,,2013-02-04 03:32:00,
2013-02-03 19:42:00,45.0,41.0,-100.00,SW,230,3.0,8.0,85,0.00,,,0.00,1.000000,,2013-02-04 03:42:00,
2013-02-03 19:52:00,45.0,41.0,-100.00,SW,230,3.0,8.0,85,0.00,,,0.00,1.000000,,2013-02-04 03:52:00,
2013-02-03 20:01:00,45.0,41.0,-100.00,SW,230,3.0,8.0,85,0.00,,,0.00,1.000000,,2013-02-04 04:01:00,
2013-02-03 20:32:00,45.0,42.0,-100.00,ESE,104,1.0,7.0,88,0.00,,,0.00,1.000000,,2013-02-04 04:32:00,
2013-02-03 20:42:00,45.0,42.0,-100.00,ESE,104,1.0,7.0,88,0.00,,,0.00,1.000000,,2013-02-04 04:42:00,
2013-02-03 20:52:00,45.0,42.0,-100.00,ESE,104,1.0,7.0,88,0.00,,,0.00,1.000000,,2013-02-04 04:52:00,
2013-02-03 21:03:00,45.0,42.0,-100.00,ESE,104,1.0,7.0,88,0.00,,,0.00,1.000000,,2013-02-04 05:03:00,
2013-02-03 21:33:00,43.0,41.0,-100.00,SE,140,1.0,4.0,92,0.00,,,0.00,1.000000,,2013-02-04 05:33:00,
2013-02-03 21:42:00,43.0,41.0,-100.00,SE,140,1.0,4.0,92,0.00,,,0.00,1.000000,,2013-02-04 05:42:00,
2013-02-03 21:52:00,43.0,41.0,-100.00,SE,140,1.0,4.0,92,0.00,,,0.00,1.000000,,2013-02-04 05:52:00,
2013-02-03 22:01:00,43.0,41.0,-100.00,SE,140,1.0,4.0,92,0.00,,,0.00,1.000000,,2013-02-04 06:01:00,
2013-02-03 22:32:00,43.0,41.0,-100.00,WSW,248,2.0,4.0,93,0.00,,,0.00,1.000000,,2013-02-04 06:32:00,
2013-02-03 22:42:00,43.0,41.0,-100.00,WSW,248,2.0,4.0,93,0.00,,,0.00,1.000000,,2013-02-04 06:42:00,
2013-02-03 22:52:00,43.0,41.0,-100.00,WSW,248,2.0,4.0,93,0.00,,,0.00,1.000000,,2013-02-04 06:52:00,
2013-02-03 23:01:00,43.0,41.0,-100.00,WSW,248,2.0,4.0,93,0.00,,,0.00,1.000000,,2013-02-04 07:01:00,
2013-02-03 23:32:00,43.0,41.0,-100.00,ENE,72,1.0,6.0,92,0.00,,,0.00,1.000000,,2013-02-04 07:32:00,
2013-02-03 23:42:00,43.0,41.0,-100.00,ENE,72,1.0,6.0,92,0.00,,,0.00,1.000000,,2013-02-04 07:42:00,
2013-02-03 23:52:00,43.0,41.0,-100.00,ENE,72,1.0,6.0,92,0.00,,,0.00,1.000000,,2013-02-04 07:52:00,